SQ6MTB Weather Reports


Display with metric or nautical units.
time (UTC)temp
F
wind
direction
speed
MPH
gust
MPH
rain 1hr
in
rain 24hr
in
rain mn
in
humidity
%
barometer
mb
20260901131049 69 284 9.0 13.0 0.00 0.00 0.00 63 1018.7
20260901130531 68 263 8.0 15.0 0.00 0.00 0.00 63 1018.7
20260901130012 69 260 7.0 15.0 0.00 0.00 0.00 62 1018.7
20260901125520 69 249 10.0 17.0 0.00 0.00 0.00 61 1018.7
20260901125027 69 269 9.0 17.0 0.00 0.00 0.00 60 1018.8
20260901124533 70 280 9.0 21.0 0.00 0.00 0.00 59 1018.8
20260901124048 70 265 10.0 21.0 0.00 0.00 0.00 58 1018.7
20260901123548 71 269 10.0 18.0 0.00 0.00 0.00 58 1018.7
20260901123033 71 271 9.0 18.0 0.00 0.00 0.00 59 1018.7
20260901122544 70 273 5.0 15.0 0.00 0.00 0.00 62 1018.7
20260901122048 69 242 6.0 13.0 0.00 0.00 0.00 62 1018.8
20260901121604 69 242 7.0 13.0 0.00 0.00 0.00 62 1018.8
20260901121008 69 5 8.0 14.0 0.00 0.00 0.00 62 1018.9
20260901120543 70 272 9.0 16.0 0.00 0.00 0.00 61 1019.0
20260901120023 70 215 9.0 17.0 0.00 0.00 0.00 60 1019.0
20260901115531 71 276 10.0 15.0 0.00 0.00 0.00 59 1019.0
20260901115035 71 266 6.0 14.0 0.00 0.00 0.00 60 1018.9
20260901114543 71 250 8.0 17.0 0.00 0.00 0.00 60 1019.0
20260901114024 70 223 8.0 15.0 0.00 0.00 0.00 61 1019.0
20260901113508 70 257 7.0 18.0 0.00 0.00 0.00 61 1018.9
20260901113017 70 203 9.0 18.0 0.00 0.00 0.00 62 1019.0
20260901112523 69 182 7.0 16.0 0.00 0.00 0.00 63 1019.1
20260901112032 69 240 9.0 20.0 0.00 0.00 0.00 63 1019.0
20260901111517 69 265 13.0 20.0 0.00 0.00 0.00 62 1019.0
20260901111018 69 238 8.0 18.0 0.00 0.00 0.00 62 1019.0
20260901110526 68 261 9.0 23.0 0.00 0.00 0.00 62 1019.0
20260901110033 69 269 12.0 23.0 0.00 0.00 0.00 61 1018.9
20260901105547 69 267 10.0 23.0 0.00 0.00 0.00 62 1018.8
20260901105051 69 277 12.0 23.0 0.00 0.00 0.00 61 1018.8
20260901104537 69 268 10.0 20.0 0.00 0.00 0.00 63 1018.7
20260901104043 68 261 12.0 24.0 0.00 0.00 0.00 62 1018.8
20260901103550 68 290 12.0 24.0 0.00 0.00 0.00 65 1018.8
20260901103059 67 298 10.0 21.0 0.00 0.00 0.00 65 1018.6
20260901103000 67 275 10.0 21.0 0.00 0.00 0.00 65 1018.6
20260901102510 67 265 11.0 21.0 0.00 0.00 0.00 65 1018.7
20260901102044 67 267 7.0 18.0 0.00 0.00 0.00 65 1018.6
20260901101547 68 192 8.0 18.0 0.00 0.00 0.00 64 1018.5
20260901101006 67 254 8.0 19.0 0.00 0.00 0.00 66 1018.4
20260901100512 67 264 10.0 19.0 0.00 0.00 0.00 67 1018.5
20260901100018 67 257 8.0 18.0 0.00 0.00 0.00 67 1018.5
20260901095524 67 317 8.0 18.0 0.00 0.00 0.00 66 1018.4
20260901095034 67 220 11.0 21.0 0.00 0.00 0.00 68 1018.5
20260901094527 66 248 9.0 21.0 0.00 0.00 0.00 69 1018.5
20260901094023 66 277 9.0 16.0 0.00 0.00 0.00 71 1018.5
20260901093531 66 263 6.0 16.0 0.00 0.00 0.00 72 1018.5
20260901093040 65 262 8.0 16.0 0.00 0.00 0.00 72 1018.6
20260901092548 65 288 7.0 14.0 0.00 0.00 0.00 72 1018.6
20260901092051 65 271 9.0 16.0 0.00 0.00 0.00 73 1018.6
20260901091548 65 249 5.0 17.0 0.00 0.00 0.00 74 1018.5
20260901091014 64 270 10.0 17.0 0.00 0.00 0.00 74 1018.4
20260901090520 64 278 7.0 16.0 0.00 0.00 0.00 74 1018.5
20260901090026 65 273 8.0 16.0 0.00 0.00 0.00 74 1018.3
20260901085508 65 248 6.0 16.0 0.00 0.00 0.00 74 1018.3
20260901085048 65 221 7.0 17.0 0.00 0.00 0.00 75 1018.3
20260901084555 64 243 7.0 16.0 0.00 0.00 0.00 74 1018.2
20260901084003 64 227 7.0 16.0 0.00 0.00 0.00 75 1018.4
20260901083540 64 280 7.0 18.0 0.00 0.00 0.00 76 1018.3
20260901083020 64 270 10.0 19.0 0.00 0.00 0.00 76 1018.2
20260901082528 64 263 9.0 15.0 0.00 0.00 0.00 76 1018.1
20260901082045 63 273 6.0 20.0 0.00 0.00 0.00 77 1018.1
20260901081550 63 277 8.0 20.0 0.00 0.00 0.00 77 1018.1
20260901081050 63 255 10.0 15.0 0.00 0.00 0.00 77 1018.1
20260901080554 63 245 7.0 16.0 0.00 0.00 0.00 78 1018.1
20260901080504 63 254 7.0 16.0 0.00 0.00 0.00 78 1018.1
20260901080125 63 243 9.0 16.0 0.00 0.00 0.00 78 1018.0
20260901075518 63 250 8.0 17.0 0.00 0.00 0.00 78 1018.0
20260901075027 63 274 10.0 17.0 0.00 0.00 0.00 78 1017.9
20260901074536 62 234 8.0 15.0 0.00 0.00 0.00 79 1017.8
20260901074042 62 259 7.0 13.0 0.00 0.00 0.00 79 1017.7
20260901073524 62 234 8.0 14.0 0.00 0.00 0.00 79 1017.7
20260901073006 62 266 7.0 14.0 0.00 0.00 0.00 79 1017.6
20260901072514 62 279 8.0 14.0 0.00 0.00 0.00 79 1017.6
20260901072021 62 258 6.0 19.0 0.00 0.00 0.00 79 1017.6
20260901071528 62 223 7.0 19.0 0.00 0.00 0.00 79 1017.6
20260901071010 62 242 10.0 18.0 0.00 0.00 0.00 79 1017.5
20260901070546 62 283 6.0 18.0 0.00 0.00 0.00 79 1017.5
20260901070032 61 238 7.0 16.0 0.00 0.00 0.00 80 1017.5
20260901065558 61 264 8.0 20.0 0.00 0.00 0.00 80 1017.5
20260901065008 61 243 5.0 18.0 0.00 0.00 0.00 80 1017.3
20260901064515 61 230 5.0 16.0 0.00 0.00 0.00 80 1017.2
20260901064023 61 228 9.0 16.0 0.00 0.00 0.00 80 1017.1
20260901063527 61 267 8.0 17.0 0.00 0.00 0.00 81 1017.2
20260901063040 60 281 8.0 17.0 0.00 0.00 0.00 81 1017.1
20260901062534 60 284 5.0 21.0 0.00 0.00 0.00 81 1017.1
20260901062040 60 266 11.0 21.0 0.00 0.00 0.00 81 1017.0
20260901061520 60 271 7.0 17.0 0.00 0.00 0.00 81 1017.1
20260901061058 60 272 9.0 17.0 0.00 0.00 0.00 81 1017.0
20260901060508 60 256 7.0 19.0 0.00 0.00 0.00 81 1017.0
20260901060014 60 257 9.0 19.0 0.00 0.00 0.00 81 1017.0
20260901055520 60 257 10.0 20.0 0.00 0.00 0.00 81 1016.9
20260901055054 60 254 7.0 20.0 0.00 0.00 0.00 81 1016.8
20260901054546 60 268 8.0 18.0 0.00 0.00 0.00 81 1016.7
20260901054046 60 275 10.0 19.0 0.00 0.00 0.00 81 1016.8
20260901053553 60 242 10.0 19.0 0.00 0.00 0.00 82 1016.6
20260901053109 60 271 7.0 16.0 0.00 0.00 0.00 81 1016.6
20260901052503 59 252 8.0 16.0 0.00 0.00 0.00 82 1016.5
20260901052012 59 261 8.0 15.0 0.00 0.00 0.00 82 1016.2
20260901051548 59 282 8.0 15.0 0.00 0.00 0.00 82 1016.2
20260901051031 59 197 8.0 17.0 0.00 0.00 0.00 83 1016.1
20260901050543 59 271 8.0 17.0 0.00 0.00 0.00 83 1016.1
20260901050048 59 275 7.0 15.0 0.00 0.00 0.00 83 1016.2
20260901045556 58 227 7.0 13.0 0.00 0.00 0.00 84 1016.1
20260901045007 58 242 5.0 17.0 0.00 0.00 0.00 84 1016.2
20260901044558 58 257 7.0 16.0 0.00 0.00 0.00 84 1016.1
20260901044024 58 238 9.0 16.0 0.00 0.00 0.00 85 1016.1
20260901043529 58 229 6.0 14.0 0.00 0.00 0.00 85 1016.0
20260901043037 57 265 5.0 14.0 0.00 0.00 0.00 85 1015.8
20260901042546 57 242 5.0 13.0 0.00 0.00 0.00 85 1015.8
20260901042049 57 244 5.0 14.0 0.00 0.00 0.00 85 1015.8
20260901041534 57 226 4.0 14.0 0.00 0.00 0.00 85 1015.8
20260901041012 57 229 5.0 13.0 0.00 0.00 0.00 85 1015.7
20260901040520 57 255 7.0 13.0 0.00 0.00 0.00 85 1015.7
20260901040032 57 213 5.0 12.0 0.00 0.00 0.00 85 1015.8
20260901035534 57 227 4.0 14.0 0.00 0.00 0.00 85 1015.7
20260901035046 57 252 5.0 14.0 0.00 0.00 0.00 85 1015.7
20260901034550 57 241 4.0 11.0 0.00 0.00 0.00 86 1015.7
20260901034035 57 243 3.0 11.0 0.00 0.00 0.00 86 1015.6
20260901033545 57 270 2.0 12.0 0.00 0.00 0.00 86 1015.5
20260901033051 57 262 2.0 7.0 0.00 0.00 0.00 86 1015.5
20260901032600 57 259 1.0 10.0 0.00 0.00 0.00 85 1015.5
20260901032058 57 231 0.0 10.0 0.00 0.00 0.00 85 1015.4
20260901031544 57 234 3.0 10.0 0.00 0.00 0.00 85 1015.5
20260901031049 57 244 4.0 10.0 0.00 0.00 0.00 85 1015.4
20260901030559 57 220 1.0 8.0 0.00 0.00 0.00 84 1015.5
20260901030011 57 238 2.0 6.0 0.00 0.00 0.00 84 1015.5
20260901025547 57 221 1.0 8.0 0.00 0.00 0.00 84 1015.5
20260901025054 57 211 2.0 6.0 0.00 0.00 0.00 84 1015.5
20260901024505 57 239 1.0 10.0 0.00 0.00 0.00 84 1015.4
20260901024039 57 286 3.0 10.0 0.00 0.00 0.00 84 1015.6
20260901023521 57 239 5.0 12.0 0.00 0.00 0.00 84 1015.5
20260901023029 58 240 4.0 12.0 0.00 0.00 0.00 83 1015.5
20260901022536 58 243 4.0 12.0 0.00 0.00 0.00 83 1015.6
20260901022017 58 268 3.0 11.0 0.00 0.00 0.00 83 1015.5
20260901021610 58 234 4.0 9.0 0.00 0.00 0.00 83 1015.6
20260901021008 58 250 2.0 6.0 0.00 0.00 0.00 83 1015.4
20260901020517 58 227 2.0 8.0 0.00 0.00 0.00 83 1015.5
20260901020029 59 235 4.0 8.0 0.00 0.00 0.00 83 1015.5
20260901015508 59 257 2.0 8.0 0.00 0.00 0.00 82 1015.4
20260901015046 59 260 4.0 8.0 0.00 0.00 0.00 82 1015.5
20260901014553 59 241 1.0 7.0 0.00 0.00 0.00 82 1015.5
20260901014004 60 200 2.0 10.0 0.00 0.00 0.00 81 1015.5
20260901013540 60 248 5.0 12.0 0.00 0.00 0.00 80 1015.5
20260901013022 60 213 5.0 13.0 0.00 0.00 0.00 80 1015.5
20260901012531 60 250 4.0 12.0 0.00 0.00 0.00 80 1015.4
20260901012041 60 228 0.0 10.0 0.00 0.00 0.00 80 1015.5
20260901011525 60 245 1.0 10.0 0.00 0.00 0.00 80 1015.5
20260901011057 61 254 4.0 8.0 0.00 0.00 0.00 80 1015.5
20260901010510 61 231 5.0 10.0 0.00 0.00 0.00 80 1015.5
20260901010018 61 248 4.0 11.0 0.00 0.00 0.00 80 1015.5
20260901005524 61 260 4.0 10.0 0.00 0.00 0.00 80 1015.4
20260901005059 61 230 5.0 9.0 0.00 0.00 0.00 80 1015.5
20260901005008 61 279 5.0 9.0 0.00 0.00 0.00 80 1015.6
20260901004546 61 279 5.0 12.0 0.00 0.00 0.00 80 1015.6
20260901004045 61 247 4.0 9.0 0.00 0.00 0.00 81 1015.6
20260901003525 61 229 5.0 10.0 0.00 0.00 0.00 80 1015.5
20260901003007 61 246 4.0 10.0 0.00 0.00 0.00 80 1015.5
20260901002513 61 238 2.0 9.0 0.00 0.00 0.00 80 1015.7
20260901002048 61 246 4.0 11.0 0.00 0.00 0.00 80 1015.6
20260901001532 61 290 4.0 11.0 0.00 0.00 0.00 80 1015.5
20260901001047 61 263 5.0 10.0 0.00 0.00 0.00 81 1015.4
20260901000549 60 252 6.0 10.0 0.00 0.00 0.00 81 1015.5
20260901000057 60 229 5.0 9.0 0.00 0.00 0.00 81 1015.4
20260831235508 61 234 4.0 10.0 0.00 0.00 0.00 82 1015.4
20260831235046 61 237 4.0 9.0 0.00 0.00 0.00 82 1015.4
20260831234527 61 238 3.0 8.0 0.00 0.00 0.00 82 1015.3
20260831234030 61 226 2.0 9.0 0.00 0.00 0.00 82 1015.4
20260831233535 61 229 1.0 9.0 0.00 0.00 0.00 82 1015.3
20260831233044 61 204 2.0 7.0 0.00 0.00 0.00 82 1015.3
20260831232528 61 181 0.0 7.0 0.00 0.00 0.00 81 1015.3
20260831232007 61 199 1.0 7.0 0.00 0.00 0.00 80 1015.2
20260831231528 61 242 1.0 8.0 0.00 0.00 0.00 80 1014.9
20260831231022 60 275 1.0 5.0 0.00 0.00 0.00 81 1014.9
20260831230532 60 234 1.0 4.0 0.00 0.00 0.00 81 1014.9
20260831230019 60 232 0.0 0.0 0.00 0.00 0.00 81 1014.8
20260831225523 60 232 0.0 0.0 0.00 0.00 0.00 81 1014.7
20260831225033 60 232 0.0 0.0 0.00 0.00 0.00 81 1014.8
20260831224616 60 232 0.0 0.0 0.00 0.00 0.00 80 1014.7
20260831224050 60 232 0.0 0.0 0.00 0.00 0.00 80 1014.7
20260831223524 60 232 0.0 0.0 0.00 0.00 0.00 79 1014.7
20260831223005 61 232 0.0 0.0 0.00 0.00 0.00 79 1014.7
20260831222514 61 232 0.0 0.0 0.00 0.00 0.00 79 1014.6
20260831222024 61 232 0.0 0.0 0.00 0.00 0.00 78 1014.6
20260831221537 61 232 0.0 0.0 0.00 0.00 0.00 78 1014.4
20260831221039 62 232 0.0 1.0 0.00 0.00 0.00 78 1014.5
20260831220524 62 232 0.0 3.0 0.00 0.00 0.00 77 1014.5
20260831220059 62 261 0.0 4.0 0.00 0.00 0.00 77 1014.5
20260831215555 62 252 2.0 7.0 0.00 0.00 0.00 76 1014.6
20260831215502 62 251 2.0 7.0 0.00 0.00 0.00 76 1014.6
20260831215036 63 252 4.0 8.0 0.00 0.00 0.00 76 1014.6
20260831214519 63 283 2.0 8.0 0.00 0.00 0.00 76 1014.6
20260831214030 63 272 4.0 8.0 0.00 0.00 0.00 75 1014.7
20260831213541 63 279 5.0 12.0 0.00 0.00 0.00 75 1014.7
20260831213045 64 271 7.0 12.0 0.00 0.00 0.00 75 1014.7
20260831212549 64 246 5.0 10.0 0.00 0.00 0.00 74 1014.8
20260831212031 64 290 7.0 10.0 0.00 0.00 0.00 74 1014.7
20260831211513 64 315 5.0 10.0 0.00 0.00 0.00 74 1014.7
20260831211022 64 281 3.0 8.0 0.00 0.00 0.00 73 1014.7
20260831210524 64 274 3.0 10.0 0.00 0.00 0.00 73 1014.3
20260831210034 64 255 3.0 10.0 0.00 0.00 0.00 73 1014.1
20260831205537 64 271 5.0 9.0 0.00 0.00 0.00 73 1014.0
20260831205045 64 234 4.0 8.0 0.00 0.00 0.00 73 1013.9
20260831204553 64 209 3.0 8.0 0.00 0.00 0.00 73 1013.7
20260831204005 64 235 2.0 8.0 0.00 0.00 0.00 72 1013.7
20260831203508 64 236 3.0 9.0 0.00 0.00 0.00 72 1013.7
20260831203023 64 238 3.0 9.0 0.00 0.00 0.00 72 1013.7
20260831202516 65 261 3.0 8.0 0.00 0.00 0.00 72 1013.6
20260831202051 65 237 4.0 9.0 0.00 0.00 0.00 72 1013.6
20260831202002 65 238 4.0 9.0 0.00 0.00 0.00 71 1013.6
20260831201535 65 244 2.0 9.0 0.00 0.00 0.00 71 1013.6
20260831201015 65 205 2.0 6.0 0.00 0.00 0.00 71 1013.5
20260831200548 65 234 2.0 6.0 0.00 0.00 0.00 70 1013.5
20260831200030 66 228 2.0 6.0 0.00 0.00 0.00 70 1013.4
20260831195546 66 240 3.0 8.0 0.00 0.00 0.00 69 1013.4
20260831195049 66 235 2.0 8.0 0.00 0.00 0.00 69 1013.3
20260831194601 66 245 4.0 10.0 0.00 0.00 0.00 69 1013.3
20260831194005 66 225 3.0 15.0 0.00 0.00 0.00 69 1013.4
20260831193507 66 225 8.0 15.0 0.00 0.00 0.00 69 1013.4
20260831193018 66 235 5.0 12.0 0.00 0.00 0.00 70 1013.3
20260831192550 65 242 5.0 12.0 0.00 0.00 0.00 70 1013.3
20260831192033 65 277 1.0 9.0 0.00 0.00 0.00 71 1013.3
20260831191533 65 279 2.0 6.0 0.00 0.00 0.00 71 1013.3
20260831191021 65 227 0.0 4.0 0.00 0.00 0.00 71 1013.2
20260831190531 65 167 1.0 4.0 0.00 0.00 0.00 71 1013.2
20260831190042 66 221 0.0 3.0 0.00 0.00 0.00 71 1013.0
20260831185521 66 204 0.0 3.0 0.00 0.00 0.00 70 1013.0
20260831185002 66 190 0.0 3.0 0.00 0.00 0.00 70 1013.0
20260831184511 66 183 0.0 3.0 0.00 0.00 0.00 70 1013.1
20260831184018 66 182 0.0 3.0 0.00 0.00 0.00 69 1013.0
20260831183527 67 193 0.0 3.0 0.00 0.00 0.00 69 1013.0
20260831183037 67 191 0.0 0.0 0.00 0.00 0.00 68 1012.9
20260831182543 67 191 0.0 0.0 0.00 0.00 0.00 67 1012.9
20260831182025 67 180 0.0 0.0 0.00 0.00 0.00 67 1012.9
20260831181508 68 196 0.0 0.0 0.00 0.00 0.00 67 1012.8
20260831181014 68 196 0.0 0.0 0.00 0.00 0.00 67 1012.7
20260831180526 68 196 0.0 1.0 0.00 0.00 0.00 66 1012.8
20260831180006 69 171 0.0 1.0 0.00 0.00 0.00 66 1012.7
20260831175546 69 178 0.0 3.0 0.00 0.00 0.00 66 1012.8
20260831175054 69 215 0.0 3.0 0.00 0.00 0.00 66 1012.7
20260831174505 70 193 0.0 3.0 0.00 0.00 0.00 65 1012.7
20260831174041 70 227 0.0 2.0 0.00 0.00 0.00 65 1012.7
20260831173524 70 227 0.0 4.0 0.00 0.00 0.00 65 1012.6
20260831173039 71 234 1.0 4.0 0.00 0.00 0.00 64 1012.6
20260831172539 71 239 2.0 5.0 0.00 0.00 0.00 64 1012.6
20260831172021 71 239 2.0 5.0 0.00 0.00 0.00 65 1012.5
20260831171601 71 235 1.0 5.0 0.00 0.00 0.00 65 1012.5
20260831171500 71 235 1.0 5.0 0.00 0.00 0.00 65 1012.5
20260831171010 72 240 2.0 5.0 0.00 0.00 0.00 64 1012.5
20260831170521 72 242 3.0 5.0 0.00 0.00 0.00 64 1012.5
20260831170024 72 227 1.0 6.0 0.00 0.00 0.00 63 1012.5
20260831165535 72 211 2.0 5.0 0.00 0.00 0.00 63 1012.5
20260831165042 72 213 1.0 5.0 0.00 0.00 0.00 63 1012.5
20260831164526 73 198 2.0 8.0 0.00 0.00 0.00 62 1012.5
20260831164032 73 270 5.0 10.0 0.00 0.00 0.00 61 1012.6
20260831163546 73 172 5.0 12.0 0.00 0.00 0.00 61 1012.5
20260831163052 73 274 5.0 12.0 0.00 0.00 0.00 60 1012.5
20260831162557 74 239 4.0 13.0 0.00 0.00 0.00 60 1012.4
20260831162504 74 252 4.0 13.0 0.00 0.00 0.00 60 1012.4
20260831162046 74 250 3.0 13.0 0.00 0.00 0.00 60 1012.4
20260831161549 74 212 3.0 9.0 0.00 0.00 0.00 61 1012.4
20260831161058 75 172 2.0 7.0 0.00 0.00 0.00 60 1012.5
20260831160507 75 296 2.0 12.0 0.00 0.00 0.00 60 1012.4
20260831160024 75 238 2.0 9.0 0.00 0.00 0.00 59 1012.5
20260831155553 75 234 2.0 14.0 0.00 0.00 0.00 59 1012.4
20260831155101 75 291 4.0 15.0 0.00 0.00 0.00 58 1012.4
20260831155001 75 212 4.0 15.0 0.00 0.00 0.00 59 1012.5
20260831154510 75 261 6.0 18.0 0.00 0.00 0.00 58 1012.5
20260831154018 75 275 10.0 18.0 0.00 0.00 0.00 55 1012.5
20260831153526 75 269 8.0 17.0 0.00 0.00 0.00 56 1012.5
20260831153100 75 240 7.0 17.0 0.00 0.00 0.00 57 1012.6
20260831153007 75 229 7.0 17.0 0.00 0.00 0.00 57 1012.6
20260831152546 75 228 5.0 15.0 0.00 0.00 0.00 59 1012.6
20260831152054 75 204 7.0 15.0 0.00 0.00 0.00 60 1012.7
20260831151506 75 242 7.0 16.0 0.00 0.00 0.00 61 1012.6
20260831151015 74 256 4.0 16.0 0.00 0.00 0.00 62 1012.7
20260831150552 74 244 5.0 14.0 0.00 0.00 0.00 63 1012.7
20260831150032 74 242 8.0 16.0 0.00 0.00 0.00 62 1012.7
20260831145544 74 225 6.0 16.0 0.00 0.00 0.00 62 1012.8
20260831145050 75 275 6.0 14.0 0.00 0.00 0.00 63 1012.7
20260831144532 74 253 7.0 14.0 0.00 0.00 0.00 65 1012.7
20260831144015 74 209 6.0 13.0 0.00 0.00 0.00 65 1012.8
20260831143522 74 264 5.0 12.0 0.00 0.00 0.00 64 1012.7
20260831143031 74 229 5.0 13.0 0.00 0.00 0.00 64 1012.7
20260831142538 74 257 9.0 14.0 0.00 0.00 0.00 63 1012.7
20260831142050 74 222 8.0 14.0 0.00 0.00 0.00 64 1012.7
20260831141552 75 267 4.0 14.0 0.00 0.00 0.00 64 1012.8
20260831141033 75 232 7.0 14.0 0.00 0.00 0.00 64 1012.8
20260831140514 74 211 7.0 18.0 0.00 0.00 0.00 65 1012.7
20260831140022 74 279 11.0 18.0 0.00 0.00 0.00 64 1012.8
20260831135529 74 246 8.0 14.0 0.00 0.00 0.00 65 1012.8
20260831135009 74 276 8.0 12.0 0.00 0.00 0.00 66 1012.8
20260831134556 74 286 7.0 16.0 0.00 0.00 0.00 67 1012.8
20260831134057 74 258 6.0 16.0 0.00 0.00 0.00 67 1012.9
20260831133506 73 123 6.0 11.0 0.00 0.00 0.00 69 1012.8
20260831133016 73 209 2.0 16.0 0.00 0.00 0.00 69 1012.9
20260831132526 73 232 8.0 16.0 0.00 0.00 0.00 69 1013.0
20260831132058 73 252 7.0 13.0 0.00 0.00 0.00 69 1013.0
20260831132008 73 296 7.0 13.0 0.00 0.00 0.00 69 1013.0
20260831131545 73 275 5.0 15.0 0.00 0.00 0.00 68 1012.9